Regional Weather Roundup
Issued by NWS Northern Indiana

Home | Current Version | Previous Version | Text Only | Print | Product List | Glossary Off
Versions: 1 2 3 4 5 6 7 8 9 10 11 12 13 14 15 16 17 18 19 20 21 22 23 24 25 26 27 28 29 30 31 32 33 34 35 36 37 38 39 40 41 42 43 44 45 46 47 48 49 50

000
ASUS43 KIWX 210310
RWRIWX

KIWX WEATHER ROUNDUP
NATIONAL WEATHER SERVICE NORTHERN INDIANA
1000 PM EST FRI JAN 20 2017

NOTE: "FAIR" INDICATES FEW OR NO CLOUDS BELOW 12,000 FEET WITH NO
SIGNIFICANT WEATHER AND/OR OBSTRUCTIONS TO VISIBILITY.

* THESE STATIONS ARE NOT UNDER NWS QUALITY CONTROL. THEY ALSO MAY NOT
  REPORT WEATHER SUCH AS PRECIPITATION OR FOG.

INZ001>027-210400-
NORTHERN INDIANA

CITY           SKY/WX    TMP DP  RH WIND       PRES   REMARKS
GARY*          CLOUDY    48  46  93 VRB5      29.66S FOG
VALPARAISO     CLOUDY    47  47 100 SE6       29.68S FOG
LAPORTE*       CLOUDY    45  45 100 SE6       29.69S FOG
KNOX*          CLOUDY    45  41  87 SE5       29.68S
SOUTH BEND     CLOUDY    45  45 100 S8        29.70R
GOSHEN         CLOUDY    46  43  89 SE7       29.71R FOG
ROCHESTER*     MOCLDY    46  46 100 E5        29.70F FOG
WARSAW*        CLOUDY    45  43  93 SE3       29.71S FOG
FORT WAYNE     CLOUDY    48  45  89 E3        29.73S
PERU/GRISSOM   CLOUDY    48  48 100 SE7       29.68S
MARION*        CLOUDY    50  46  87 SE9       29.72S

$$
INZ028>050-210400-
CENTRAL INDIANA

CITY           SKY/WX    TMP DP  RH WIND       PRES   REMARKS
LAFAYETTE      CLOUDY    50  48  93 SE6       29.67S
KOKOMO*        CLOUDY    48  46  93 SE8       29.71S
MUNCIE*        CLOUDY    53  47  79 S6        29.73R
INDIANAPOLIS   CLOUDY    53  48  83 SE9       29.70S

$$
MIZ043>046-050>051-056>058-064>065-071>073-077>080-210400-
SOUTHWEST LOWER MICHIGAN

CITY           SKY/WX    TMP DP  RH WIND       PRES   REMARKS
BATTLE CREEK   FOG       41  41 100 S7        29.71S VSB 1/2
BENTON HARBOR  CLOUDY    44  42  93 SE6       29.68R FOG
COLDWATER*     CLOUDY    43  43 100 CALM      29.71F FOG
HILLSDALE*     CLOUDY    41  41 100 S3        29.71S FOG
HOLLAND        CLOUDY    38  38 100 E3        29.70S
GRAND RAPIDS   FOG       36  34  92 E3        29.70S VSB 3/4
KALAMAZOO      FOG       42  40  92 SE3       29.70F VSB 1/4
STURGIS*       CLOUDY    43  43 100 S5        29.70R FOG
THREE RIVERS*  CLOUDY    43  43 100 S3        29.71R FOG

$$
OHZ001>008-015>018-024>025-210400-
NORTHWEST OHIO

CITY           SKY/WX    TMP DP  RH WIND       PRES   REMARKS
DEFIANCE       CLOUDY    44  43  96 SE3       29.74S
FINDLAY        CLOUDY    48  45  89 SE3       29.74F FOG
TOLEDO EXPRESS CLOUDY    46  46 100 S6        29.75S FOG
TOLEDO METCALF CLOUDY    46  46 100 S6        29.77R FOG
LIMA           CLOUDY    48  47  96 SE7       29.74S

$$
AND FOR LAKE MICHIGAN COASTAL AND OPEN LAKE BUOY OBSERVATIONS

STATION/POSITION TEMP    WIND        PRES    VSBY  WAVE
                 AIR SEA DIR/SP/G                  HT/PER
                 (F)     (DEG/KT/KT) (MB)    (MI)  (FT/S)
CALUMET HARBOR    37     100/  2/  3 1004.0R
MICHIGAN CITY     47     140/  9/ 10   N/A
BURNS HARBOR      48     170/  7/ 12 1005.4R

$$
&&




USA.gov is the U.S. government's official web portal to all federal, state and local government web resources and services.